|
|
Asteroid 2010 OA
(Preview)
Orbital elements: 2010 OA Earth MOID = 0.0757 AU Epoch 2010 July 23.0 TT = JDT 2455400.5 MPC M 343.29223 (2000.0) P Q n 0.35205314 Peri. 258.62814 +0.99181413 +0.07239980 a 1.9863872 Node 97.15670 -0.02672908 +0.92318766 e 0.5140889 Incl. 6.08517 -0.12486110 +0.37746896 P 2.80 H 20.4 G 0.15 U 7 [ur...
|
Blobrana
|
0
|
|
|
|
|
Asteroid (12171) 2382 T-3
(Preview)
Orbital Elements at Epoch 2455400.5 (2010-Jul-23.0) TDB Reference: MPO160659 (heliocentric ecliptic J2000) Element Value Uncertainty (1-sigma) Units e 0.0596033 n/a a 2.7380757 n/a AUq 2.5748774 n/a AUi 2.37651 n/a degnode 310.91084 n/a degperi 275.17560 n/a degM 234.95433 n/a degtp 24559...
|
Blobrana
|
1
|
|
|
|
|
Asteroid 24548 Katieeverett (2001 DW42)
(Preview)
[url=http://www.knoxnews.com/news/2010/jul/18/mit-stude...
|
Blobrana
|
0
|
|
|
|
|
Asteroid 2010 NB2
(Preview)
Orbital elements: 2010 NB2 Earth MOID = 0.0966 AU Epoch 2010 July 23.0 TT = JDT 2455400.5 MPC M 22.80493 (2000.0) P Q n 0.34104102 Peri. 291.91342 -0.89398164 -0.16022200 a 2.0289202 Node 241.16530 +0.23698375 -0.96165181 e 0.7550571 Incl. 28.53589 -0.38030978 -0.22260887 P 2.89 H 20.3 G 0.15 U 9 [...
|
Blobrana
|
2
|
|
|
|
|
Asteroid (1334) Lundmarka
(Preview)
The magnitude 17.4 asteroid (1334) Lundmarka will occult the magnitude 6.7 star HD 23841, in the constellation Taurus, at 04:15 UT, 18th July, 2010. The 1 second event is visible from Europe. Position(2000): RA 03 48 30.7675, Dec +09 38 45.413
|
Blobrana
|
0
|
|
|
|
|
Asteroid 1995 KG1
(Preview)
Orbital elements: 1995 KG1 Epoch 2010 July 23.0 TT = JDT 2455400.5 MPC M 10.56167 (2000.0) P Q n 0.19583767 Peri. 154.84874 -0.72850739 +0.49757210 a 2.9367833 Node 63.38687 -0.68304801 -0.47525726 e 0.5471507 Incl. 31.77916 -0.05217664 -0.72563940 P 5.03 H 19.8 G 0.15 U 3 [url=http://www.mino...
|
Blobrana
|
0
|
|
|
|
|
Asteroid 2010 NZ1
(Preview)
Orbital elements: 2010 NZ1 Earth MOID = 0.2691 AU Epoch 2010 July 23.0 TT = JDT 2455400.5 MPC M 74.26965 (2000.0) P Q n 0.62164952 Peri. 37.56119 -0.92548852 +0.32588377 a 1.3596871 Node 158.79603 -0.30732488 -0.94398401 e 0.6452196 Incl. 32.26008 +0.22141008 +0.05190332 P 1.59 H 19.8 G 0.15 U 8 [u...
|
Blobrana
|
0
|
|
|
|
|
M-type asteroids
(Preview)
Title: Spectroscopic survey of M--type asteroids Authors: S. Fornasier, B. E. Clark, E. Dotto, A. Migliorini, M. Ockert-Bell, M.A. Barucci M-type asteroids, as defined in the Tholen taxonomy (Tholen, 1984), are medium albedo bodies supposed to have a metallic composition and to be the progenit...
|
Blobrana
|
0
|
|
|
|
|
Asteroid 2004 RR109
(Preview)
Orbital elements: 2004 RR109 Epoch 2010 July 23.0 TT = JDT 2455400.5 MPC M 26.15122 (2000.0) P Q n 0.16612070 Peri. 267.79296 -0.12562558 +0.98592603 a 3.2773303 Node 351.90363 -0.24802667 -0.13887153 e 0.5526623 Incl. 51.55731 -0.96057326 -0.09308367 P 5.93 H 17.5 G 0.15 U 3 [url=http://www.m...
|
Blobrana
|
0
|
|
|
|
|
Asteroid 2010 NV1
(Preview)
Orbital elements: 2010 NV1 Epoch 2010 July 23.0 TT = JDT 2455400.5 MPC M 0.29635 (2000.0) P Q n 0.00095544 Peri. 111.83266 +0.76136707 +0.48046608 a 102.0942624 Node 136.81554 +0.01082484 -0.68073001 e 0.9088595 Incl. 140.50166 +0.64823067 -0.55295479 P 1030 H 10.3 G 0.15 U 5 [url=http://www.m...
|
Blobrana
|
0
|
|
|
|
|
Asteroid 2010 NW1
(Preview)
Orbital elements: 2010 NW1 Earth MOID = 0.3923 AU Epoch 2010 July 23.0 TT = JDT 2455400.5 MPC M 20.10713 (2000.0) P Q n 0.17022131 Peri. 131.73348 +0.08713936 +0.89636500 a 3.2244831 Node 136.62860 -0.99260767 +0.04112309 e 0.6046158 Incl. 39.26873 +0.08447922 -0.44140534 P 5.79 H 17.5 G 0.15 U 8 [...
|
Blobrana
|
0
|
|
|
|
|
Asteroid (138404) 2000 HA24
(Preview)
The 430 - 960 metre wide asteroid 2000 HA24 will make a close pass (61.6 lunar distances, 0.1582 AU), travelling at 6.41 km/second, to the Earth-Moon system on the 3rd November, 2010 @ 08:30 UT. See more The Lunar Distance (LD),...
|
Blobrana
|
0
|
|
|
|
|
Asteroid 2008 EL
(Preview)
The 98 - 220 metre wide asteroid 2008 EL will make a close pass (12.6 lunar distances, 0.0325 AU), travelling at 17.77 km/second, to the Earth-Moon system on the 2nd November, 2010 @ 20:10 UT. See more The Lunar Distance (LD)...
|
Blobrana
|
0
|
|
|
|
|
Asteroid (778) Theobalda
(Preview)
Title: Portrait of Theobalda as a Young Asteroid Family Authors: Bojan Novakovic (Version v2) The (778) Theobalda asteroid family attracted little attention so far, but our study shows that it is important in several aspects. In this paper we investigate the origin and evolution of Theobalda fam...
|
Blobrana
|
0
|
|
|
|
|
Asteroid 4457 van Gogh
(Preview)
Asteroid 4457 van Gogh makes its closest approach to the Earth (1.862 AU) on the 13th July, 2010.
|
Blobrana
|
0
|
|
|